Regional Weather Roundup
Issued by NWS

Home | Current Version | Previous Version | Graphics & Text | Print | Product List | Glossary On
Versions: 1 2 3 4 5 6 7 8 9 10 11 12 13 14 15 16 17 18 19 20 21 22 23 24 25 26 27 28
000
ASUS45 KSLC 270910
RWRUT

UTAH REGIONAL WEATHER ROUNDUP
NATIONAL WEATHER SERVICE SALT LAKE CITY UT
300 AM MDT FRI MAY 27 2016

UTZ001>011-023>025-271000-

NORTHERN UTAH

CITY           SKY/WX    TMP DP  RH WIND       PRES   REMARKS
BRIGHAM CITY     N/A     51  44  75 CALM      29.96S
HILL AFB       PTCLDY    50  41  71 SE12      29.97F
LOGAN          CLEAR     45  42  89 NE7       29.96S
OGDEN          MOCLDY    51  43  74 SE5       29.95S
PROVO AIRPORT  PTCLDY    46  37  71 CALM      29.98F
SALT LAKE CITY PTCLDY    55  40  56 SE7       29.95F
VERNAL         CLOUDY    50  38  63 S6        29.96R
WENDOVER       CLOUDY    59  37  44 NW3       29.96F
HEBER CITY     CLEAR     34  32  93 CALM      30.01F
WEST JORDAN    CLEAR     48  39  71 S3        29.97F

$$

UTZ012>022-026-027-271000-

SOUTHERN/CENTRAL UTAH

CITY           SKY/WX    TMP DP  RH WIND       PRES   REMARKS
BLANDING       PTCLDY    43  32  64 N5        30.02F
BRYCE CANYON   PTCLDY    36  31  82 N9        30.07F WCI  29
CEDAR CITY     CLEAR     40  35  83 NE3       30.02S
DELTA          PTCLDY    45  41  87 E5        29.99S
HANKSVILLE     CLEAR     43  30  61 CALM      29.94S
MILFORD        CLOUDY    46  41  82 S7        30.00F
MOAB/CYNLANDS  CLEAR     49  30  48 MISG      29.90F
PRICE          CLEAR     48  30  49 N6        29.95F
ST GEORGE      SUNNY     57  36  44 E8        29.94S
KANAB          MOCLDY    48  37  66 CALM      30.03F

$$

REGIONAL REPORTS     COLORADO/ARIZONA

CITY           SKY/WX    TMP DP  RH WIND       PRES   REMARKS
CRAIG, CO      CLOUDY    44  39  82 SW5       29.98S
GRAND JUNCTION CLOUDY    50  40  68 SE5       29.92S
RIFLE          CLOUDY    49  40  71 CALM      29.94F
MONTROSE       CLOUDY    47  37  68 E5        29.97F
CORTEZ         CLOUDY    40  34  79 NE8       29.96F WCI  34
PAGE, AZ       CLEAR     60  35  39 W5        29.93F
GRAND CANYON   CLEAR     31  23  72 CALM      30.07S
KINGMAN        CLEAR     56  28  34 CALM      29.93S
FLAGSTAFF      CLEAR     35  27  72 SW3       30.07F

$$

REGIONAL REPORTS    NEVADA/IDAHO/WYOMING

CITY           SKY/WX    TMP DP  RH WIND       PRES   REMARKS
LAS VEGAS, NV  PTCLDY    72  32  23 S3        29.81S
ELY            CLOUDY    37  32  82 S8        30.06F WCI  31
ELKO           CLEAR     40  37  89 SW3       30.01F FOG
POCATELLO, ID  CLEAR     53  37  54 SW12      29.95S
BURLEY         PTCLDY    51  38  60 SW10      29.93S
EVANSTON, WY   CLOUDY    39  34  82 SW8       30.04F WCI  33
ROCK SPRINGS   CLOUDY    43  39  86 E7        30.02S
KEMMERER         N/A     41  34  75 CALM      30.04F

$$




USA.gov is the U.S. government's official web portal to all federal, state and local government web resources and services.